Regional Weather Roundup
Issued by NWS

Home | Current Version | Previous Version | Graphics & Text | Print | Product List | Glossary On
Versions: 1 2 3 4 5 6 7 8 9 10 11 12 13 14 15 16 17 18 19 20 21 22 23 24 25 26 27 28 29 30 31 32 33 34 35 36 37 38 39 40 41 42 43 44 45 46 47 48 49 50
000
ASUS43 KOAX 222010
RWRNE

WEATHER ROUNDUP FOR NEBRASKA
NATIONAL WEATHER SERVICE OMAHA NE
200 PM CST MON JAN 22 2018

NOTES: SATELLITE DATA IS BEING USED TO AUGMENT CLOUD COVER ABOVE
       12000 FEET.
       "FAIR" INDICATES FEW OR NO CLOUDS BELOW 12,000 FEET WITH NO
       SIGNIFICANT WEATHER AND/OR OBSTRUCTIONS TO VISIBILITY.


NEZ001>004-019>022-054>056-222100-
NEBRASKA PANHANDLE

CITY           SKY/WX    TMP DP  RH WIND       PRES   REMARKS
SCOTTSBLUFF    SUNNY     30  17  58 W18       29.99F WCI  18
ALLIANCE       SUNNY     29  17  61 NW15      29.94F WCI  18
CHADRON        SUNNY     25  14  63 NW18G25   30.00F WCI  11
SIDNEY         SUNNY     31  17  56 NW22G32   29.96F WCI  18
$$

NEZ057>060-069>072-079>082-222100-
SOUTHWEST NEBRASKA

CITY           SKY/WX    TMP DP  RH WIND       PRES   REMARKS
NORTH PLATTE   PTSUNNY   32  21  64 NW21G32   29.88F WCI  20
IMPERIAL       MIX PCPN  30  19  63 NW20G29   29.91F WCI  17
MCCOOK         MOSUNNY   31  23  72 NW29G37   29.87S HAZE    WCI  16
$$

NEZ005>010-023>029-035>040-094-222100-
NORTH CENTRAL NEBRASKA

CITY           SKY/WX    TMP DP  RH WIND       PRES   REMARKS
VALENTINE      MOSUNNY   32  21  64 NW18G26   29.89F WCI  20
BROKEN BOW     CLOUDY    31  24  75 NW24G36   29.79S WCI  17
ORD            CLOUDY    29  23  78 N24G37    29.76S HAZE    WCI  15
$$

NEZ041-046>049-061>064-073>077-083>087-222100-
SOUTH CENTRAL NEBRASKA

CITY           SKY/WX    TMP DP  RH WIND       PRES   REMARKS
GRAND ISLAND   FOG       28  25  88 NW33G43   29.68R VSB 3/4 WCI  11
HASTINGS       LGT SNOW  30  24  78 NW33G48   29.69R VSB 1   WCI  14
KEARNEY        CLOUDY    31  25  78 N31G37    29.75  WCI  16
$$

NEZ011>018-030>034-042>045-222100-
NORTHEAST NEBRASKA

CITY           SKY/WX    TMP DP  RH WIND       PRES   REMARKS
NORFOLK        FOG       25  23  92 N28G45    29.63R VSB 1/2 WCI   9
COLUMBUS       SNOW      27  25  93 MISG      29.62R VSB 1/2
$$

NEZ050>053-065>068-078-088>093-222100-
SOUTHEAST NEBRASKA

CITY           SKY/WX    TMP DP  RH WIND       PRES   REMARKS
LINCOLN        HVY SNOW  29  27  92 N30G51    29.53R VSB 1/4 WCI  13
OMAHA EPPLEY   LGT SNOW  33  31  92 N24G37    29.48R VSB 3/4 WCI  20
FALLS CITY     MIX PCPN  33  32  96 NW16      29.41R FOG     WCI  23
$$

NEZ044-045-051>053-067-222100-
OMAHA AREA

CITY           SKY/WX    TMP DP  RH WIND       PRES   REMARKS
OMAHA EPPLEY   LGT SNOW  33  31  92 N24G37    29.48R VSB 3/4 WCI  20
OFFUTT AFB     LGT SNOW  33  32  94 N21G31    29.45R FOG     WCI  21
$$




USA.gov is the U.S. government's official web portal to all federal, state and local government web resources and services.